Flag for U.S.A. Weather past 2 weeks in Pomona, California, U.S.A.

Now
69 °F

Clear.


Feels Like: 69 °F
Forecast: 63 / 83 °F
Wind: 9 mph from West

Location: Chino Airport

Current Time: Sep 18, 2014 at 11:07:04 PM

Latest Report: Sep 18, 2014 at 9:53 PM


Visibility: 10 mi

Pressure: 29.86 "Hg

Humidity: 81%

Dew point: 63 °F

Location of PomonaLocation

Historic Weather in Pomona — Graph

°F

Pomona temperature yesterday

Maximum temperature yesterday: 100 °F (at 12:53 PM)
Minimum temperature yesterday: 74 °F (at 10:53 PM)
Average temperature yesterday: 86 °F

Past Weeks' High & Low Weather Summary

 TemperatureHumidityPressure
High108 °F (Sep 14, 1:53 PM)97% (Sep 5, 8:00 AM)29.93 "Hg (Sep 5, 8:00 AM)
Low59 °F (Sep 10, 4:53 AM)16% (Sep 10, 12:53 PM)29.66 "Hg (Sep 14, 3:53 PM)
Average80 °F51%29.80 "Hg
* Reported Sep 3 9:53 PM — Sep 18 9:53 PM, Pomona, Weather by CustomWeather, © 2014

Note: Actual official high and low records may vary slightly from our data, if they occured in-between our weather recording intervals... More about our weather records

Advertising

Pomona weather history for previous 24 hours

 ConditionsComfort  
Time TempWeatherWind HumidityBarometerVisibility
9:53 PM
Sep 18
69 °FClear.9 mph81%29.86 "Hg10 mi
8:53 PM71 °FClear.12 mph76%29.85 "Hg10 mi
7:53 PM73 °FClear.12 mph74%29.83 "Hg10 mi
6:53 PM76 °FPassing clouds.15 mph67%29.81 "Hg10 mi
5:53 PM80 °FPassing clouds.14 mph58%29.80 "Hg10 mi
4:53 PM83 °FPassing clouds.15 mph51%29.79 "Hg10 mi
3:53 PM86 °FPassing clouds.15 mph46%29.79 "Hg10 mi
2:53 PM86 °FPassing clouds.12 mph46%29.80 "Hg10 mi
1:53 PM86 °FPassing clouds.13 mph43%29.83 "Hg10 mi
12:53 PM84 °FPassing clouds.12 mph45%29.85 "Hg10 mi
11:53 AM81 °FPassing clouds.10 mph47%29.87 "Hg10 mi
10:53 AM80 °FSunny.10 mph47%29.88 "Hg10 mi
9:53 AM77 °FSunny.10 mph50%29.89 "Hg10 mi
8:53 AM73 °FPassing clouds.5 mph66%29.88 "Hg10 mi
7:53 AM69 °FPassing clouds.5 mph79%29.87 "Hg10 mi
6:53 AM65 °FPassing clouds.3 mph85%29.85 "Hg10 mi
5:53 AM66 °FClear.6 mph84%29.82 "Hg9 mi
4:53 AM66 °FClear.6 mph84%29.80 "Hg8 mi
3:53 AM67 °FClear.6 mph79%29.79 "Hg10 mi
2:53 AM69 °FClear.5 mph79%29.80 "Hg9 mi
1:53 AM70 °FClear.3 mph76%29.79 "Hg9 mi
12:53 AM72 °FClear.6 mph68%29.80 "Hg10 mi
11:53 PM
Sep 17
74 °FClear.7 mph67%29.79 "Hg10 mi
Weather by CustomWeather, © 2014

See weather overviewHow to use our weather pages